Time,TemperatureF,DewpointF,PressureIn,WindDirection,WindDirectionDegrees,WindSpeedMPH,WindSpeedGustMPH,Humidity,HourlyPrecipIn,Conditions,Clouds,dailyrainin,SolarRadiationWatts/m^2,SoftwareType,DateUTC
2013-03-27 00:00:00,27.5,17.6,29.91,SSE,160,0.0,0.0,66,0.00,,,0.21,0,Wunderground v.1.15,2013-03-27 06:00:00,
2013-03-27 00:05:00,27.3,17.8,29.91,SSE,160,0.0,1.0,67,0.00,,,0.21,0,Wunderground v.1.15,2013-03-27 06:05:00,
2013-03-27 00:15:00,27.2,18.4,29.93,WNW,301,2.0,6.0,69,0.00,,,0.21,0,Wunderground v.1.15,2013-03-27 06:15:00,
2013-03-27 00:20:00,27.2,18.7,29.93,WNW,301,1.0,1.0,70,0.00,,,0.21,0,Wunderground v.1.15,2013-03-27 06:20:00,
2013-03-27 00:30:00,27.2,19.0,29.92,WNW,301,0.0,6.0,71,0.00,,,0.21,0,Wunderground v.1.15,2013-03-27 06:30:00,
2013-03-27 00:40:00,27.2,18.4,29.91,SE,130,2.0,2.0,69,0.00,,,0.21,0,Wunderground v.1.15,2013-03-27 06:40:00,
2013-03-27 00:50:00,27.0,17.8,29.91,SE,124,4.0,11.0,68,0.00,,,0.21,0,Wunderground v.1.15,2013-03-27 06:50:00,
2013-03-27 00:55:00,27.0,17.8,29.90,SE,131,3.0,11.0,68,0.00,,,0.21,0,Wunderground v.1.15,2013-03-27 06:55:00,
2013-03-27 01:05:00,26.9,17.7,29.90,SE,138,1.0,11.0,68,0.00,,,0.21,0,Wunderground v.1.15,2013-03-27 07:05:00,
2013-03-27 01:15:00,26.7,17.6,29.90,SE,133,2.0,9.0,68,0.00,,,0.00,0,Wunderground v.1.15,2013-03-27 07:15:00,
2013-03-27 01:25:00,26.6,17.8,29.86,SE,133,0.0,9.0,69,0.00,,,0.00,0,Wunderground v.1.15,2013-03-27 07:25:00,
2013-03-27 01:35:00,26.4,17.9,29.86,SE,133,0.0,9.0,70,0.00,,,0.00,0,Wunderground v.1.15,2013-03-27 07:35:00,
2013-03-27 01:45:00,26.1,18.0,29.88,SE,133,0.0,7.0,71,0.00,,,0.00,0,Wunderground v.1.15,2013-03-27 07:45:00,
2013-03-27 01:55:00,25.8,17.7,29.88,SE,133,0.0,7.0,71,0.00,,,0.00,0,Wunderground v.1.15,2013-03-27 07:55:00,
2013-03-27 02:05:00,25.6,17.5,29.88,SE,133,0.0,7.0,71,0.00,,,0.00,0,Wunderground v.1.15,2013-03-27 08:05:00,
2013-03-27 02:15:00,25.3,17.2,29.88,SE,133,0.0,1.0,71,0.00,,,0.00,0,Wunderground v.1.15,2013-03-27 08:15:00,
2013-03-27 02:25:00,25.0,17.2,29.88,SE,133,0.0,1.0,72,0.00,,,0.00,0,Wunderground v.1.15,2013-03-27 08:25:00,
2013-03-27 02:35:00,24.8,17.4,29.88,SSW,210,0.0,1.0,73,0.00,,,0.00,0,Wunderground v.1.15,2013-03-27 08:35:00,
2013-03-27 02:45:00,24.7,17.6,29.88,SSW,210,0.0,6.0,74,0.00,,,0.00,0,Wunderground v.1.15,2013-03-27 08:45:00,
2013-03-27 02:55:00,24.7,17.9,29.88,SSW,210,0.0,6.0,75,0.00,,,0.00,0,Wunderground v.1.15,2013-03-27 08:55:00,
2013-03-27 03:00:00,24.7,17.9,29.88,SSW,210,0.0,6.0,75,0.00,,,0.00,0,Wunderground v.1.15,2013-03-27 09:00:00,
2013-03-27 03:05:00,24.7,17.9,29.88,SSW,210,0.0,6.0,75,0.00,,,0.00,0,Wunderground v.1.15,2013-03-27 09:05:00,
2013-03-27 03:15:00,24.7,17.6,29.87,SSW,210,0.0,2.0,74,0.00,,,0.00,0,Wunderground v.1.15,2013-03-27 09:15:00,
2013-03-27 03:25:00,24.7,17.3,29.86,SW,215,1.0,2.0,73,0.00,,,0.00,0,Wunderground v.1.15,2013-03-27 09:25:00,
2013-03-27 03:35:00,24.5,17.1,29.86,SW,215,0.0,2.0,73,0.00,,,0.00,0,Wunderground v.1.15,2013-03-27 09:35:00,
2013-03-27 03:40:00,24.4,17.0,29.86,SW,215,0.0,4.0,73,0.00,,,0.00,0,Wunderground v.1.15,2013-03-27 09:40:00,
2013-03-27 03:50:00,24.1,17.3,29.86,SW,215,1.0,1.0,75,0.00,,,0.00,0,Wunderground v.1.15,2013-03-27 09:50:00,
2013-03-27 04:00:00,24.1,17.6,29.87,SW,215,1.0,1.0,76,0.00,,,0.00,0,Wunderground v.1.15,2013-03-27 10:00:00,
2013-03-27 04:05:00,24.1,17.6,29.87,SW,215,0.0,4.0,76,0.00,,,0.00,0,Wunderground v.1.15,2013-03-27 10:05:00,
2013-03-27 04:15:00,24.2,17.7,29.88,SW,223,1.0,6.0,76,0.00,,,0.00,0,Wunderground v.1.15,2013-03-27 10:15:00,
2013-03-27 04:20:00,24.2,17.7,29.88,SW,223,2.0,2.0,76,0.00,,,0.00,0,Wunderground v.1.15,2013-03-27 10:20:00,
2013-03-27 04:30:00,24.7,18.8,29.92,SW,222,1.0,1.0,78,0.00,,,0.00,0,Wunderground v.1.15,2013-03-27 10:30:00,
2013-03-27 04:40:00,25.1,19.5,29.92,SW,222,1.0,1.0,79,0.00,,,0.00,0,Wunderground v.1.15,2013-03-27 10:40:00,
2013-03-27 04:50:00,25.6,20.3,29.92,SW,223,1.0,6.0,80,0.00,,,0.00,0,Wunderground v.1.15,2013-03-27 10:50:00,
2013-03-27 04:55:00,25.7,20.7,29.92,SW,226,1.0,6.0,81,0.00,,,0.00,0,Wunderground v.1.15,2013-03-27 10:55:00,
2013-03-27 05:05:00,26.3,22.1,29.92,WSW,240,2.0,6.0,84,0.00,,,0.00,0,Wunderground v.1.15,2013-03-27 11:05:00,
2013-03-27 05:15:00,26.7,22.8,29.91,West,274,2.0,6.0,85,0.00,,,0.00,0,Wunderground v.1.15,2013-03-27 11:15:00,
2013-03-27 05:25:00,26.9,23.0,29.92,WNW,292,1.0,9.0,85,0.00,,,0.00,0,Wunderground v.1.15,2013-03-27 11:25:00,
2013-03-27 05:35:00,26.9,22.7,29.92,WNW,292,0.0,9.0,84,0.00,,,0.00,0,Wunderground v.1.15,2013-03-27 11:35:00,
2013-03-27 05:45:00,26.7,22.5,29.92,WNW,294,5.0,8.0,84,0.00,,,0.00,0,Wunderground v.1.15,2013-03-27 11:45:00,
2013-03-27 05:55:00,26.7,22.2,29.92,WNW,291,6.0,8.0,83,0.00,,,0.00,0,Wunderground v.1.15,2013-03-27 11:55:00,
2013-03-27 06:00:00,26.7,22.2,29.92,WSW,239,5.0,9.0,83,0.00,,,0.00,0,Wunderground v.1.15,2013-03-27 12:00:00,
2013-03-27 06:05:00,26.9,22.1,29.92,NW,316,5.0,9.0,82,0.00,,,0.00,0,Wunderground v.1.15,2013-03-27 12:05:00,
2013-03-27 06:15:00,27.0,21.9,29.93,NW,308,4.0,15.0,81,0.00,,,0.00,0,Wunderground v.1.15,2013-03-27 12:15:00,
2013-03-27 06:25:00,27.3,22.2,29.96,WSW,257,1.0,15.0,81,0.00,,,0.00,0,Wunderground v.1.15,2013-03-27 12:25:00,
2013-03-27 06:35:00,27.3,21.9,29.96,WSW,257,0.0,15.0,80,0.00,,,0.00,0,Wunderground v.1.15,2013-03-27 12:35:00,
2013-03-27 06:40:00,27.3,21.9,29.97,WSW,257,0.0,9.0,80,0.00,,,0.00,0,Wunderground v.1.15,2013-03-27 12:40:00,
2013-03-27 06:50:00,27.3,21.9,29.97,WSW,257,0.0,9.0,80,0.00,,,0.00,0,Wunderground v.1.15,2013-03-27 12:50:00,
2013-03-27 07:00:00,27.5,22.1,29.97,WSW,257,1.0,1.0,80,0.00,,,0.00,0,Wunderground v.1.15,2013-03-27 13:00:00,
2013-03-27 07:05:00,27.5,22.1,29.97,WSW,257,1.0,9.0,80,0.00,,,0.00,0,Wunderground v.1.15,2013-03-27 13:05:00,
2013-03-27 07:15:00,27.6,22.2,29.95,WSW,254,1.0,7.0,80,0.00,,,0.00,0,Wunderground v.1.15,2013-03-27 13:15:00,
2013-03-27 07:20:00,27.8,22.1,29.95,WSW,254,1.0,1.0,79,0.00,,,0.00,5,Wunderground v.1.15,2013-03-27 13:20:00,
2013-03-27 07:30:00,28.2,22.5,29.97,WSW,254,1.0,1.0,79,0.00,,,0.00,7,Wunderground v.1.15,2013-03-27 13:30:00,
2013-03-27 07:40:00,28.5,22.5,29.98,SW,236,2.0,2.0,78,0.00,,,0.00,7,Wunderground v.1.15,2013-03-27 13:40:00,
2013-03-27 07:45:00,28.7,22.7,29.98,SW,236,1.0,7.0,78,0.00,,,0.00,11,Wunderground v.1.15,2013-03-27 13:45:00,
2013-03-27 07:55:00,29.0,22.4,29.97,SW,234,2.0,7.0,76,0.00,,,0.00,18,Wunderground v.1.15,2013-03-27 13:55:00,
2013-03-27 08:00:00,29.3,22.0,29.97,SW,234,1.0,7.0,74,0.00,,,0.00,35,Wunderground v.1.15,2013-03-27 14:00:00,
2013-03-27 08:05:00,29.5,21.9,29.97,SW,229,2.0,7.0,73,0.00,,,0.00,58,Wunderground v.1.15,2013-03-27 14:05:00,
2013-03-27 08:15:00,30.1,22.5,29.97,SW,229,1.0,8.0,73,0.00,,,0.00,72,Wunderground v.1.15,2013-03-27 14:15:00,
2013-03-27 08:20:00,30.6,22.3,29.97,SW,229,1.0,1.0,71,0.00,,,0.00,72,Wunderground v.1.15,2013-03-27 14:20:00,
2013-03-27 08:30:00,31.3,22.3,30.01,SW,230,0.0,8.0,69,0.00,,,0.00,62,Wunderground v.1.15,2013-03-27 14:30:00,
2013-03-27 08:40:00,32.2,22.1,30.01,SW,223,1.0,1.0,66,0.00,,,0.00,53,Wunderground v.1.15,2013-03-27 14:40:00,
2013-03-27 08:50:00,33.1,22.2,30.01,SW,223,1.0,6.0,64,0.00,,,0.00,49,Wunderground v.1.15,2013-03-27 14:50:00,
2013-03-27 08:55:00,33.5,21.9,30.00,SW,224,1.0,6.0,62,0.00,,,0.00,91,Wunderground v.1.15,2013-03-27 14:55:00,
2013-03-27 09:05:00,35.2,22.7,30.00,SW,229,2.0,7.0,60,0.00,,,0.00,60,Wunderground v.1.15,2013-03-27 15:05:00,
2013-03-27 09:15:00,36.5,21.8,29.98,WNW,296,1.0,8.0,55,0.00,,,0.00,223,Wunderground v.1.15,2013-03-27 15:15:00,
2013-03-27 09:20:00,37.3,22.6,29.98,WNW,299,1.0,8.0,55,0.00,,,0.00,106,Wunderground v.1.15,2013-03-27 15:20:00,
2013-03-27 09:30:00,38.5,22.8,29.96,NW,325,2.0,2.0,53,0.00,,,0.00,28,Wunderground v.1.15,2013-03-27 15:30:00,
2013-03-27 09:40:00,38.8,20.8,29.96,West,261,5.0,5.0,48,0.00,,,0.01,107,Wunderground v.1.15,2013-03-27 15:40:00,
2013-03-27 09:50:00,39.8,21.2,29.96,WSW,240,6.0,11.0,47,0.00,,,0.01,243,Wunderground v.1.15,2013-03-27 15:50:00,
2013-03-27 09:59:00,40.1,21.0,29.95,NW,319,7.0,11.0,46,0.00,,,0.01,106,Wunderground v.1.15,2013-03-27 15:59:00,
2013-03-27 10:05:00,40.1,19.9,29.95,WSW,246,7.0,11.0,44,0.00,,,0.01,97,Wunderground v.1.15,2013-03-27 16:05:00,
2013-03-27 10:15:00,40.3,20.1,29.96,NW,305,8.0,16.0,44,0.00,,,0.01,663,Wunderground v.1.15,2013-03-27 16:15:00,
2013-03-27 10:25:00,40.5,20.8,29.96,WNW,291,9.0,16.0,45,0.00,,,0.01,336,Wunderground v.1.15,2013-03-27 16:25:00,
2013-03-27 10:35:00,40.8,20.0,29.96,WSW,248,9.0,16.0,43,0.00,,,0.01,60,Wunderground v.1.15,2013-03-27 16:35:00,
2013-03-27 10:45:00,41.3,19.9,29.94,NNW,343,9.0,15.0,42,0.00,,,0.01,735,Wunderground v.1.15,2013-03-27 16:45:00,
2013-03-27 10:50:00,41.6,21.8,29.94,North,353,9.0,9.0,45,0.00,,,0.02,750,Wunderground v.1.15,2013-03-27 16:50:00,
2013-03-27 11:00:00,42.1,19.5,29.94,WNW,291,9.0,9.0,40,0.00,,,0.02,582,Wunderground v.1.15,2013-03-27 17:00:00,
2013-03-27 11:05:00,41.9,20.4,29.94,West,264,9.0,21.0,42,0.00,,,0.02,343,Wunderground v.1.15,2013-03-27 17:05:00,
2013-03-27 11:15:00,42.5,20.4,29.94,NW,318,8.0,25.0,41,0.00,,,0.03,815,Wunderground v.1.15,2013-03-27 17:15:00,
2013-03-27 11:20:00,42.9,20.2,29.94,SSE,168,8.0,25.0,40,0.00,,,0.03,823,Wunderground v.1.15,2013-03-27 17:20:00,
2013-03-27 11:30:00,43.5,19.5,29.94,West,274,9.0,25.0,38,0.00,,,0.03,823,Wunderground v.1.15,2013-03-27 17:30:00,
2013-03-27 11:35:00,43.5,21.3,29.94,WSW,244,9.0,25.0,41,0.00,,,0.04,848,Wunderground v.1.15,2013-03-27 17:35:00,
2013-03-27 11:45:00,44.2,20.2,29.94,NW,305,8.0,11.0,38,0.05,,,0.05,862,Wunderground v.1.15,2013-03-27 17:45:00,
2013-03-27 11:55:00,44.6,20.5,29.91,North,353,10.0,24.0,38,0.05,,,0.05,890,Wunderground v.1.15,2013-03-27 17:55:00,
2013-03-27 12:00:00,44.9,19.5,29.91,NW,315,10.0,10.0,36,0.04,,,0.05,892,Wunderground v.1.15,2013-03-27 18:00:00,
2013-03-27 12:05:00,45.4,20.6,29.91,WNW,287,9.0,24.0,37,0.00,,,0.06,897,Wunderground v.1.15,2013-03-27 18:05:00,
2013-03-27 12:10:00,45.2,21.1,29.91,WNW,294,9.0,9.0,38,0.00,,,0.06,934,Wunderground v.1.15,2013-03-27 18:10:00,
2013-03-27 12:20:00,45.5,19.4,29.91,NNW,337,8.0,23.0,35,0.04,,,0.07,646,Wunderground v.1.15,2013-03-27 18:20:00,
2013-03-27 12:30:00,45.4,19.3,29.91,North,359,9.0,23.0,35,0.04,,,0.07,924,Wunderground v.1.15,2013-03-27 18:30:00,
2013-03-27 12:35:00,44.9,20.2,29.91,WNW,288,10.0,23.0,37,0.00,,,0.07,933,Wunderground v.1.15,2013-03-27 18:35:00,
2013-03-27 12:45:00,45.5,20.1,29.92,NW,322,10.0,14.0,36,0.00,,,0.08,984,Wunderground v.1.15,2013-03-27 18:45:00,
2013-03-27 12:55:00,45.8,19.7,29.92,NW,318,9.0,10.0,35,0.00,,,0.08,811,Wunderground v.1.15,2013-03-27 18:55:00,
2013-03-27 13:00:00,45.4,17.9,29.92,WNW,284,10.0,22.0,33,0.00,,,0.08,523,Wunderground v.1.15,2013-03-27 19:00:00,
2013-03-27 13:05:00,45.1,17.7,29.92,NW,323,11.0,22.0,33,0.00,,,0.08,114,Wunderground v.1.15,2013-03-27 19:05:00,
2013-03-27 13:15:00,44.1,17.5,29.93,NW,313,10.0,23.0,34,0.00,,,0.08,157,Wunderground v.1.15,2013-03-27 19:15:00,
2013-03-27 13:24:00,44.9,16.8,29.94,WNW,296,8.0,23.0,32,0.00,,,0.08,67,Wunderground v.1.15,2013-03-27 19:24:00,
2013-03-27 13:30:00,45.2,17.0,29.94,West,263,9.0,23.0,32,0.00,,,0.08,70,Wunderground v.1.15,2013-03-27 19:30:00,
2013-03-27 13:40:00,45.5,16.6,29.93,WSW,251,9.0,23.0,31,0.00,,,0.08,67,Wunderground v.1.15,2013-03-27 19:40:00,
2013-03-27 13:50:00,46.2,18.6,29.93,WSW,256,8.0,23.0,33,0.00,,,0.08,88,Wunderground v.1.15,2013-03-27 19:50:00,
2013-03-27 13:55:00,46.8,17.0,29.93,WNW,294,7.0,23.0,30,0.00,,,0.08,100,Wunderground v.1.15,2013-03-27 19:55:00,
2013-03-27 14:10:00,46.2,17.2,29.91,WSW,251,8.0,20.0,31,0.00,,,0.08,178,Wunderground v.1.15,2013-03-27 20:10:00,
2013-03-27 14:15:00,46.4,16.6,29.91,WNW,296,9.0,20.0,30,0.00,,,0.08,130,Wunderground v.1.15,2013-03-27 20:15:00,
2013-03-27 14:25:00,46.4,15.8,29.94,NW,323,9.0,20.0,29,0.00,,,0.08,114,Wunderground v.1.15,2013-03-27 20:25:00,
2013-03-27 14:39:00,44.9,16.8,29.94,West,263,7.0,7.0,32,0.00,,,0.08,187,Wunderground v.1.15,2013-03-27 20:39:00,
2013-03-27 14:45:00,45.8,16.1,29.94,West,274,6.0,8.0,30,0.00,,,0.08,190,Wunderground v.1.15,2013-03-27 20:45:00,